ECMWFNIL_700_spd_000.txt.gz
Wind_Speed
33 33 32 31 30 29 28 29 31 33 35 36 37 37 37 36 35 35 35 36 36 36 36 37 37 38 38 39 40 40 40 40 39 38 36 34 32 32 32 33 34 36
36 36 35 33 32 30 29 29 30 31 33 35 37 37 37 36 36 36 36 36 37 36 37 37 37 38 39 40 41 41 41 40 39 37 35 33 32 32 33 34 36 38
40 38 38 37 35 32 31 31 30 31 33 35 36 37 37 36 36 37 37 37 37 37 37 37 38 39 40 41 42 42 41 40 38 36 34 32 33 34 35 36 38 40
43 40 39 39 38 35 32 32 31 31 32 33 35 36 37 37 37 37 38 38 38 38 38 38 39 39 40 41 42 42 40 38 36 34 33 32 34 35 37 39 40 42
44 42 40 39 39 37 34 33 32 32 33 33 34 36 38 38 38 38 39 39 38 38 39 39 39 39 40 41 41 41 39 37 34 33 32 33 35 37 38 40 42 43
45 43 41 40 40 38 36 34 33 33 34 34 34 36 38 38 39 39 39 39 39 39 39 39 38 39 40 40 40 39 37 34 32 32 33 34 35 37 38 41 42 44
46 45 43 41 40 39 38 36 35 35 35 35 35 36 37 38 39 39 39 39 39 39 38 38 38 39 39 40 39 37 35 32 31 32 33 34 36 37 39 41 43 45
46 46 46 44 42 40 40 38 38 37 36 36 36 36 37 38 39 39 39 39 38 38 37 37 37 38 38 38 37 35 32 30 31 32 33 34 36 38 40 42 44 46
47 47 48 47 44 43 41 40 40 39 38 38 37 37 38 38 39 39 38 38 37 37 36 36 36 36 36 36 34 32 30 30 31 31 32 34 36 39 41 43 44 46
49 48 48 48 46 45 43 42 42 42 40 40 39 39 38 38 39 38 38 37 37 36 35 35 35 35 35 34 31 30 29 29 30 31 33 35 37 40 42 43 45 46
50 50 49 49 48 47 45 44 44 44 43 42 42 41 39 39 39 38 38 37 36 35 34 33 33 33 33 31 30 29 29 30 31 32 34 36 38 41 42 44 46 46
53 51 49 49 49 48 46 45 46 46 44 44 44 42 41 40 40 38 37 36 35 33 32 32 32 32 30 29 29 29 30 30 32 33 35 37 39 42 43 45 47 48
54 52 50 49 49 48 47 47 47 46 45 46 46 45 43 41 40 39 37 35 33 32 31 31 31 29 29 29 29 30 31 32 33 35 37 39 41 43 44 46 48 50
53 52 50 49 48 48 47 48 48 46 46 47 47 46 45 43 41 39 37 35 32 31 30 30 28 28 29 30 30 31 32 33 35 36 38 40 42 44 45 48 50 52
52 50 49 48 48 48 47 47 47 46 46 47 47 47 46 44 42 39 37 34 31 30 30 29 27 28 29 30 32 33 34 35 36 38 40 42 43 45 47 49 51 53
49 49 48 47 47 47 46 46 46 46 46 47 47 47 46 45 42 39 36 33 30 30 29 27 27 28 30 31 33 35 35 36 37 38 41 42 44 46 48 50 52 54
44 45 44 43 44 44 44 45 45 46 46 47 48 47 46 45 42 39 36 32 30 30 29 27 27 29 31 32 34 35 36 37 38 39 41 42 44 47 49 51 53 56
36 37 38 38 40 41 42 43 44 45 46 47 48 47 46 45 42 39 36 33 31 30 29 28 29 30 31 33 34 35 36 37 38 39 41 43 45 47 49 51 54 56
31 32 33 35 38 39 41 42 43 45 46 47 48 48 47 46 43 40 37 33 31 31 30 29 30 31 32 33 34 34 36 37 38 39 41 43 45 48 50 52 54 55
31 32 32 33 35 37 39 42 43 45 47 48 49 48 47 46 43 40 37 34 33 32 30 29 30 32 32 33 33 34 35 36 37 38 40 42 45 48 50 52 54 54
31 32 32 32 33 36 39 41 44 46 47 48 49 48 48 46 44 41 38 35 34 32 30 30 32 32 32 32 33 34 35 36 37 38 40 42 45 48 50 52 53 54
27 28 29 30 32 36 39 42 44 46 47 49 49 49 49 47 45 41 38 35 35 33 32 31 31 31 31 33 34 34 35 35 36 38 41 43 45 48 49 51 52 53
27 26 26 28 30 34 38 41 44 46 48 50 51 51 50 48 44 40 37 36 36 35 32 30 30 31 31 32 34 34 35 35 36 39 41 43 45 48 49 50 51 52
32 29 28 28 29 32 35 39 43 46 49 51 52 53 51 48 44 40 38 37 36 34 31 29 29 30 31 32 33 34 35 35 37 39 41 43 45 48 49 50 51 51
36 34 32 32 32 32 34 38 42 45 49 52 53 54 51 48 43 40 38 36 34 33 30 28 28 29 30 32 33 33 34 36 38 40 41 43 46 48 49 50 51 51
38 37 36 36 36 35 36 38 41 45 48 51 53 53 51 47 42 39 37 35 34 31 28 26 27 28 30 31 32 33 34 36 38 40 42 44 47 48 50 51 51 51

ECMWFNIL_700_spd_003.txt.gz
Wind_Speed
28 28 28 28 29 29 30 30 29 28 28 26 25 25 26 28 31 34 36 38 40 41 42 42 42 42 41 40 38 37 37 36 36 36 34 32 31 30 30 31 31 31
30 31 31 30 30 30 30 31 30 28 28 27 26 25 26 28 31 33 35 37 39 40 41 41 41 41 40 39 38 37 37 37 36 36 34 32 31 30 30 30 30 30
33 34 34 33 32 31 31 31 30 29 28 28 28 27 26 28 30 32 34 36 38 39 40 40 40 40 40 39 39 38 37 37 36 36 34 32 31 30 30 30 30 30
36 37 37 37 35 33 32 31 31 31 30 29 29 29 28 28 30 32 34 36 38 39 39 40 40 40 40 40 40 39 38 38 37 36 34 32 31 30 30 31 30 30
36 38 39 39 38 35 34 33 32 33 33 32 31 30 30 31 31 33 34 36 38 38 39 40 40 40 40 41 40 39 38 37 36 35 33 31 31 30 30 30 30 29
36 38 40 40 39 37 36 35 35 35 35 35 34 32 31 32 33 34 36 37 38 39 39 40 40 40 41 41 40 39 38 37 36 34 32 30 29 29 29 29 29 28
38 39 40 41 41 38 37 37 37 38 38 37 37 36 34 33 34 36 37 38 39 39 40 40 41 41 41 40 39 39 37 36 35 33 31 29 28 28 27 28 28 29
40 40 40 43 43 40 38 38 39 39 40 40 39 39 37 35 35 38 39 40 40 40 40 40 41 41 41 41 40 39 37 36 34 32 31 29 27 27 26 27 28 30
43 41 41 43 45 43 39 38 38 38 40 41 40 40 40 37 38 39 40 41 42 42 41 41 41 42 42 41 40 39 37 35 34 32 30 28 26 26 26 27 29 31
45 44 43 43 45 44 40 37 38 38 38 40 41 42 42 40 40 41 41 42 43 44 43 42 42 42 42 42 41 39 37 35 33 31 29 27 26 26 27 29 31 33
46 46 44 42 42 43 42 39 40 39 38 39 41 43 43 41 42 42 41 41 43 45 45 44 43 43 43 43 42 40 38 35 33 31 29 28 27 27 29 31 33 35
48 46 45 42 39 39 42 43 44 42 40 40 42 43 43 42 42 42 42 42 43 45 46 46 45 44 44 44 43 41 38 36 34 32 30 28 28 29 31 33 36 37
49 46 45 44 42 41 44 46 48 47 45 44 43 43 43 42 43 43 42 42 44 45 47 47 46 45 45 44 43 41 39 37 35 32 29 29 29 31 33 35 37 38
46 44 44 44 45 47 48 50 50 49 48 46 44 43 42 42 43 43 43 43 44 46 47 47 46 46 45 44 43 41 39 37 35 31 30 30 31 32 34 36 37 38
41 40 39 40 42 44 45 46 46 46 46 45 43 42 42 41 43 43 44 44 45 46 46 46 46 45 45 45 44 42 40 38 35 32 31 31 31 33 34 36 37 39
35 35 36 36 37 38 39 40 40 41 41 41 41 41 41 41 42 43 44 44 45 46 46 46 45 45 46 45 44 43 41 39 37 34 33 32 32 33 34 35 37 39
32 32 31 31 31 31 31 31 31 32 33 35 37 38 39 41 42 43 44 45 46 46 46 46 46 46 46 46 45 45 43 42 40 37 36 36 35 34 34 35 37 39
28 28 27 27 27 26 25 25 26 27 29 31 33 35 37 39 40 41 43 44 46 47 46 46 46 47 48 48 47 47 46 44 43 41 40 39 36 33 33 36 38 39
26 26 26 25 25 25 25 25 25 26 28 30 32 33 35 36 38 39 41 43 45 46 47 47 48 49 50 50 50 49 48 47 46 44 42 39 35 33 34 36 38 40
26 25 25 24 24 24 24 24 25 25 27 28 30 31 33 34 36 38 40 42 44 46 47 48 49 51 51 50 50 50 49 49 47 45 41 37 34 33 34 36 38 41
26 25 24 24 23 22 22 23 24 25 25 26 28 29 31 32 34 36 39 42 44 46 48 49 51 52 51 49 49 49 49 48 46 43 40 37 34 33 34 37 39 41
26 25 26 26 25 24 23 22 22 22 23 24 24 25 27 29 31 34 38 41 43 46 48 49 51 51 49 48 48 48 47 46 43 41 38 35 33 33 35 37 39 42
26 27 27 27 26 26 25 23 22 21 20 20 21 22 24 26 28 31 35 38 41 44 47 49 51 50 48 47 47 46 45 43 41 38 35 32 31 33 35 38 40 42
27 27 27 27 27 26 26 26 25 23 21 20 21 23 24 25 26 29 32 36 40 43 46 48 50 49 47 46 45 44 42 40 38 35 32 30 31 33 35 38 40 42
28 29 29 28 27 27 26 26 26 25 24 23 24 25 25 26 26 28 31 35 39 43 45 48 49 48 46 45 43 41 40 38 35 32 30 29 31 33 35 38 39 41
29 30 30 29 28 27 27 27 28 27 28 27 27 27 27 27 27 29 32 36 40 43 46 47 48 46 45 43 41 39 38 36 32 29 29 29 31 33 35 37 39 40

ECMWFNIL_700_spd_006.txt.gz
Wind_Speed
29 29 29 27 26 25 24 24 23 23 23 23 23 21 20 19 20 22 23 25 27 29 31 33 35 36 37 38 38 39 40 41 42 43 42 40 39 38 37 37 36 36
30 31 31 30 29 27 26 25 25 25 25 24 24 23 23 22 23 23 23 24 26 28 31 33 34 36 37 38 38 39 40 41 42 43 42 40 39 38 37 37 36 36
31 32 32 31 31 29 27 27 26 26 26 26 25 24 24 25 25 25 25 24 26 28 30 32 34 36 37 38 38 38 39 40 41 42 42 40 39 38 37 36 36 36
31 31 31 31 31 30 29 29 28 27 28 28 27 25 25 25 26 27 26 25 26 27 29 32 34 36 37 38 38 38 39 39 41 41 41 40 39 38 37 37 36 36
31 32 32 32 32 32 32 31 30 29 29 30 30 28 27 26 26 26 26 26 26 27 28 30 33 36 38 39 39 39 39 40 41 41 42 41 40 39 38 37 37 36
32 32 33 33 33 34 34 33 31 31 31 32 33 32 30 29 28 26 26 26 26 27 27 29 32 34 37 39 39 40 40 40 41 41 42 41 41 40 39 38 37 36
32 33 34 34 35 36 36 35 33 33 33 34 35 36 34 32 30 28 28 28 28 28 28 29 31 33 35 37 38 39 40 40 41 41 41 41 41 41 40 40 39 37
33 35 36 36 37 38 37 36 35 35 35 36 37 38 38 35 32 31 31 31 31 30 30 31 31 33 35 36 37 39 40 40 41 41 41 42 41 41 41 41 40 38
38 39 38 38 39 39 39 37 37 37 37 38 39 40 41 39 36 34 34 34 34 33 33 32 32 33 34 35 36 38 40 41 42 42 42 42 42 42 42 41 40 39
40 41 41 41 40 40 41 40 39 38 38 39 39 41 43 43 41 37 36 37 37 36 35 33 32 33 34 35 37 38 40 41 42 43 43 43 42 42 42 41 41 40
40 41 42 43 41 40 42 42 41 40 39 40 41 43 45 46 45 42 39 39 40 39 38 35 34 34 35 37 38 39 41 42 43 43 44 43 43 42 42 42 42 42
43 43 43 44 44 42 42 44 44 43 42 43 44 45 46 47 48 46 42 41 42 42 41 38 37 36 37 39 40 41 41 42 43 44 44 44 44 43 43 43 43 43
47 46 44 45 46 45 44 44 46 45 46 47 47 48 48 48 49 48 45 43 43 44 44 41 39 39 40 41 41 41 42 42 43 44 45 46 45 44 44 43 43 43
49 48 45 45 47 48 46 45 46 48 49 49 48 47 47 47 47 47 47 46 45 44 44 42 41 42 43 43 42 42 42 43 44 45 46 46 46 45 44 44 44 43
48 46 43 44 47 49 48 47 48 49 50 49 46 45 45 46 46 46 47 47 45 44 43 43 43 43 43 42 42 42 44 45 45 46 46 47 47 46 45 45 44 44
44 42 42 42 44 47 48 50 50 50 49 46 44 43 43 45 45 46 46 45 44 44 43 43 44 43 43 42 43 44 45 46 46 46 47 47 47 47 47 46 45 45
42 41 42 42 43 44 47 49 49 48 46 43 42 41 42 42 43 44 44 44 43 43 43 44 44 43 43 44 44 45 45 46 47 47 48 49 49 49 49 48 47 47
42 41 42 43 43 44 45 46 45 44 43 41 40 39 39 40 41 41 42 41 41 42 42 43 43 43 44 44 43 44 45 45 46 47 48 49 50 50 50 49 48 48
46 44 44 44 44 43 43 43 43 41 40 38 37 37 37 38 39 39 39 39 40 41 41 41 42 42 42 41 41 42 43 45 46 47 48 49 50 50 49 49 49 49
49 47 45 45 45 43 42 42 41 39 38 37 36 36 37 38 39 39 40 39 39 39 39 40 40 40 40 39 40 41 42 44 46 47 48 49 49 49 49 49 48 48
48 48 47 47 45 42 41 40 38 37 36 35 35 36 38 39 40 40 40 39 38 38 38 38 38 38 38 38 39 40 42 44 46 47 48 48 48 49 49 48 48 47
45 46 46 45 42 40 40 38 35 34 34 33 34 35 37 40 41 40 39 37 36 36 36 37 37 37 38 38 39 40 41 43 45 46 47 48 49 49 48 47 47 46
42 42 42 42 40 39 38 36 34 34 34 32 32 33 35 38 39 39 37 36 36 36 36 35 35 36 37 38 40 41 41 42 44 46 47 48 49 49 47 46 46 45
40 39 39 39 39 38 36 35 34 34 33 32 33 34 35 37 37 37 37 36 36 35 34 33 34 35 37 38 40 41 41 42 44 46 48 48 48 47 45 44 44 43
39 38 38 39 37 36 35 34 34 33 33 34 34 35 36 37 37 37 37 36 35 34 32 32 34 35 37 39 40 41 42 43 45 47 48 48 46 45 44 43 42 41
40 39 39 39 38 37 36 36 36 35 35 35 35 35 36 36 36 36 36 35 34 32 32 32 34 36 37 38 40 41 42 45 47 48 47 46 45 44 43 42 40 38

ECMWFNIL_700_spd_009.txt.gz
Wind_Speed
27 28 29 29 30 30 31 32 31 29 28 27 26 26 25 26 26 27 26 25 24 23 23 23 24 25 25 26 27 27 28 29 30 31 32 32 32 32 33 33 33 33
26 27 29 29 29 30 31 31 31 30 29 28 28 28 28 29 29 29 27 26 25 24 24 24 24 25 25 25 25 26 26 27 29 30 31 31 31 31 32 32 32 32
25 28 29 30 30 30 31 32 33 32 31 32 32 31 31 30 29 29 29 28 27 25 25 25 25 25 25 25 25 25 25 26 27 28 30 31 31 31 31 31 32 31
24 27 30 31 32 33 34 35 35 35 35 35 35 33 32 31 30 30 30 29 28 27 26 26 26 26 26 25 25 24 24 25 26 27 28 30 30 31 31 31 32 32
24 28 30 32 34 35 37 38 37 37 37 37 36 35 34 32 31 31 31 31 30 29 28 28 27 27 27 27 26 25 25 25 26 26 28 29 30 31 31 32 32 32
27 29 32 34 36 38 39 39 38 38 38 38 38 37 36 33 32 32 32 32 32 31 30 30 29 28 28 28 28 28 27 27 27 27 28 29 30 31 31 32 33 33
32 32 34 37 39 40 40 41 40 40 40 40 41 40 38 35 34 33 33 34 34 34 33 32 31 30 30 30 30 30 30 29 29 28 28 29 30 31 32 32 33 33
36 36 37 39 41 42 42 43 42 42 41 41 42 42 40 37 35 35 35 36 37 36 35 34 33 32 32 32 32 32 32 32 31 30 30 30 31 32 32 33 33 34
41 42 41 41 42 43 44 44 43 42 43 43 43 43 42 40 38 37 37 38 39 39 38 37 37 36 34 34 33 33 33 34 33 32 32 32 32 33 33 34 34 35
44 46 46 45 44 44 44 44 45 44 44 45 45 45 45 44 41 40 39 40 41 41 41 41 41 40 38 36 35 35 35 35 35 35 34 34 34 34 34 34 35 36
47 49 50 48 46 45 45 45 46 46 45 45 46 46 46 47 46 44 42 42 42 42 43 44 44 44 42 39 37 37 37 37 37 37 37 37 36 36 35 35 36 37
49 51 53 52 49 46 47 47 47 47 46 45 46 46 47 49 50 48 45 43 43 44 46 48 48 47 46 43 41 40 40 40 40 40 41 40 38 37 37 37 38 39
51 50 51 54 53 49 48 49 49 48 47 46 46 47 49 50 52 52 49 46 45 46 48 50 52 52 50 48 45 43 42 42 42 43 44 43 41 39 39 39 39 40
55 53 53 56 56 53 50 51 51 49 47 46 46 48 50 52 53 54 53 50 48 49 50 52 54 56 55 53 50 47 44 43 44 46 46 45 44 42 41 41 40 41
53 54 54 54 53 52 52 52 52 50 48 48 48 49 52 54 55 55 55 54 51 51 52 53 55 57 58 57 55 51 47 45 47 48 48 48 46 44 42 42 42 43
51 52 53 51 49 50 51 51 51 49 48 48 48 49 51 54 56 56 56 55 53 52 53 54 55 56 57 58 58 54 50 48 49 50 50 49 47 45 44 43 44 44
50 52 53 51 50 51 51 50 50 47 46 47 48 49 50 51 53 54 55 54 52 52 53 54 54 54 54 55 56 55 52 51 51 51 50 49 47 46 46 45 45 45
50 50 50 49 49 50 49 49 50 50 50 49 49 50 50 50 50 52 53 52 52 53 53 52 52 52 52 52 53 53 53 52 52 51 49 47 47 47 47 47 47 47
48 47 47 47 48 48 49 51 53 54 54 52 51 51 51 50 49 51 52 52 53 53 52 51 51 51 51 50 51 52 52 52 52 50 48 47 47 47 48 48 48 47
46 45 44 46 48 49 50 53 54 54 53 53 52 52 52 51 51 52 53 53 53 53 52 51 50 49 49 50 50 51 51 51 49 48 47 48 48 48 48 49 48 47
42 44 44 45 47 48 50 52 53 52 53 54 54 53 52 52 52 53 54 53 53 52 51 50 48 47 47 48 49 49 48 48 47 47 48 48 48 49 49 49 49 48
44 45 45 45 46 48 52 55 55 54 54 55 55 53 52 52 53 53 53 52 52 51 50 49 48 46 46 47 48 48 47 46 46 47 48 48 49 49 49 49 49 48
49 48 48 48 49 51 54 55 54 54 55 55 55 55 54 52 52 51 50 50 51 51 51 51 49 48 48 49 50 49 47 46 47 47 48 49 49 50 50 49 48 47
51 52 52 52 52 52 52 52 52 52 52 53 54 55 54 51 49 49 50 52 53 53 52 51 50 50 51 51 51 50 49 47 48 49 49 50 50 50 50 49 48 47
50 51 52 51 50 49 49 50 50 50 50 51 52 54 53 51 50 51 52 53 52 52 51 51 51 51 52 52 53 52 49 47 48 49 49 50 50 50 50 48 47 47
46 47 48 48 47 47 48 49 50 50 50 51 52 53 53 52 52 52 52 51 50 50 50 50 50 50 52 53 54 52 49 47 48 49 48 49 49 49 49 48 47 47

ECMWFNIL_700_spd_015.txt.gz
Wind_Speed
13 15 17 19 21 24 25 26 27 29 30 31 33 33 34 35 37 38 38 38 39 40 40 41 42 41 40 40 40 39 38 37 37 36 35 35 33 32 31 30 29 28
11 12 13 14 16 19 22 24 26 28 29 30 31 32 33 35 36 37 38 38 40 40 41 42 42 41 41 41 40 40 39 38 37 36 36 35 33 32 32 31 30 30
14 13 13 13 14 16 19 22 23 24 25 27 29 31 32 33 34 36 37 39 41 42 43 44 43 43 42 42 42 41 40 39 38 37 36 36 35 34 33 32 32 31
19 18 17 16 16 16 17 19 20 21 22 24 26 29 31 33 34 35 37 40 42 43 44 44 44 44 44 44 43 43 41 40 39 38 38 37 35 35 34 34 33 32
22 23 23 21 20 20 19 19 18 19 20 22 24 27 30 32 34 36 38 40 43 44 44 45 45 46 45 45 44 43 42 40 39 38 38 37 36 35 35 35 34 32
25 26 27 26 26 25 24 22 21 21 21 21 23 25 29 32 35 38 40 42 44 45 46 46 46 46 46 46 45 44 42 40 39 38 38 37 37 36 36 36 35 33
29 29 29 30 30 30 30 28 27 25 24 24 24 26 28 32 36 39 42 45 47 47 48 48 48 48 48 47 46 44 42 41 39 39 38 38 38 38 37 36 35 34
36 34 33 34 33 33 33 32 32 31 29 28 28 28 30 32 36 39 42 45 47 49 50 50 49 49 49 49 48 46 44 43 41 40 40 39 39 39 37 37 36 35
46 43 40 39 38 38 37 35 34 34 35 34 33 33 33 35 37 41 44 46 48 50 51 52 52 52 51 51 49 48 47 45 44 43 42 41 40 39 38 38 37 37
54 51 48 45 44 43 43 41 39 37 37 38 38 38 37 37 39 42 46 49 50 52 53 54 54 54 54 53 52 51 50 48 46 45 44 43 41 40 40 39 39 39
53 52 50 49 47 46 46 47 47 45 43 43 43 42 42 41 41 42 45 49 52 54 55 55 56 56 57 57 56 55 53 51 49 47 46 45 43 42 41 41 41 41
47 46 44 44 44 44 44 46 49 50 49 48 47 47 47 46 46 46 46 47 50 54 57 58 58 58 59 59 59 58 57 55 53 50 49 47 46 45 44 43 43 43
42 41 40 40 40 40 42 43 46 49 50 50 50 50 51 51 51 51 50 49 49 51 55 59 61 60 60 61 61 62 61 59 57 54 52 50 49 48 47 46 46 46
43 41 40 40 40 40 41 42 44 46 48 50 51 52 53 54 55 55 54 54 53 53 53 56 60 63 63 63 63 64 64 63 61 59 56 54 53 52 51 50 49 49
47 45 44 44 44 44 44 44 45 46 47 49 50 51 52 53 56 57 57 57 57 57 56 56 58 62 64 65 66 66 66 66 65 63 61 59 57 56 55 54 53 53
50 50 50 50 50 50 50 49 49 49 50 50 50 50 51 52 54 56 58 59 60 60 61 61 61 61 62 65 66 67 67 67 67 66 65 63 62 60 59 58 57 56
53 53 53 53 53 53 54 53 52 51 51 51 51 51 51 52 53 54 56 59 61 62 63 65 65 63 61 61 63 66 68 69 69 69 68 67 66 64 63 61 60 59
51 52 52 52 52 53 54 54 54 53 52 52 52 52 52 52 52 54 56 58 60 62 62 64 67 67 64 61 60 63 66 69 70 70 70 70 69 67 66 64 63 62
48 49 50 51 52 53 53 53 54 54 53 53 52 51 52 53 52 53 55 58 60 61 61 62 64 67 67 65 62 62 63 67 70 70 70 71 70 69 67 66 65 64
47 47 48 49 50 51 52 52 52 52 53 54 53 52 51 52 53 53 54 56 59 62 62 62 63 65 67 68 67 64 63 64 67 69 69 69 69 69 68 68 67 66
51 49 48 47 48 49 50 51 51 51 52 53 54 53 51 50 51 53 54 55 58 61 63 64 64 65 68 69 69 67 63 62 64 66 68 69 69 69 69 68 67 66
56 54 52 51 50 49 50 51 52 52 52 52 54 54 52 50 50 51 53 54 56 58 61 64 64 65 67 68 68 67 63 61 62 64 66 68 70 70 70 69 67 66
53 53 54 54 53 53 52 51 51 52 53 53 53 53 52 50 49 50 51 52 54 54 56 60 62 64 66 66 67 67 64 61 61 62 63 66 68 68 67 66 66 66
51 50 51 52 53 55 55 54 52 52 52 52 53 54 54 52 50 50 50 51 52 53 53 54 57 61 64 66 66 65 64 61 60 60 60 61 63 63 63 64 66 67
51 50 49 49 50 52 54 55 55 54 53 52 53 54 54 54 53 51 50 50 52 53 54 53 53 55 60 64 64 63 63 61 59 58 58 59 61 63 64 65 66 66
50 50 49 48 48 49 50 52 53 54 55 54 53 54 54 54 55 54 52 50 51 52 54 55 54 54 56 59 60 61 61 60 59 59 60 61 62 64 65 65 65 65

ECMWFNIL_700_spd_021.txt.gz
Wind_Speed
25 25 25 25 25 24 24 24 24 24 25 25 26 27 28 30 32 35 39 42 45 47 49 50 52 53 55 57 60 61 61 60 58 57 55 56 56 56 56 56 55 54
32 32 31 30 30 29 29 29 29 29 29 30 30 30 30 30 30 31 33 36 40 43 46 48 49 51 53 55 58 60 61 61 60 59 57 57 56 56 56 56 55 55
39 38 38 37 36 35 35 36 37 37 37 36 36 35 35 34 34 33 32 32 34 37 42 45 47 49 51 52 55 58 59 60 60 59 58 58 57 57 57 56 56 56
43 43 43 42 41 40 40 42 43 44 44 44 43 42 41 40 39 38 36 34 32 33 35 40 44 47 49 50 52 54 56 59 59 59 58 58 58 58 57 57 56 56
44 45 46 46 46 45 45 46 47 48 48 49 50 49 47 46 44 42 41 39 36 34 33 34 38 43 46 48 50 52 53 55 57 58 59 59 58 58 58 57 57 57
44 45 46 47 48 48 48 48 49 50 51 52 52 52 50 48 46 44 42 41 39 38 35 34 35 37 41 45 48 50 52 53 54 56 58 58 59 58 58 57 57 58
44 44 44 45 46 48 50 51 51 51 51 51 50 49 48 47 45 43 42 40 39 39 38 37 35 35 37 40 44 47 49 52 53 54 56 58 58 59 59 59 59 58
42 42 43 44 44 46 48 51 52 52 51 49 47 44 43 42 42 41 41 40 39 39 39 38 38 37 36 37 39 42 46 49 51 53 55 57 58 59 60 60 59 59
40 40 41 42 43 44 45 48 50 51 50 49 48 46 44 42 41 40 40 39 39 39 39 39 39 39 38 38 38 40 43 46 49 52 54 56 57 59 60 60 60 60
41 41 41 42 42 43 45 46 48 50 51 51 51 50 49 48 46 44 42 41 40 40 39 39 40 40 40 39 39 40 41 43 46 50 53 55 57 59 60 61 61 61
42 43 44 44 43 43 44 45 47 49 51 52 53 54 54 53 51 49 47 45 45 44 42 41 41 40 40 40 40 40 41 43 45 47 50 53 56 58 59 61 62 61
43 43 44 44 45 45 45 45 46 47 49 51 53 55 56 56 55 54 52 50 48 47 47 47 46 44 43 41 40 40 41 42 44 46 47 50 53 56 59 60 62 62
43 42 42 42 43 45 46 47 48 49 50 51 52 54 55 57 57 56 55 54 51 50 50 50 51 51 49 47 45 44 43 43 44 45 47 48 50 53 56 60 60 61
45 45 45 45 46 46 48 49 50 50 50 51 52 53 54 56 57 58 57 56 55 54 52 51 52 54 55 55 53 51 49 47 46 46 47 48 49 50 52 56 58 60
48 49 50 51 52 53 54 54 53 52 51 50 51 52 54 55 56 57 58 58 58 57 55 54 54 54 55 57 59 58 56 54 52 50 49 50 50 50 50 52 55 58
50 51 53 54 56 58 59 59 58 56 54 52 51 51 53 55 56 57 58 59 60 59 58 57 57 56 55 56 58 60 61 60 58 55 54 53 53 52 52 52 53 55
51 52 53 54 55 57 57 58 58 58 58 56 54 52 52 54 55 57 58 60 61 61 61 60 59 58 58 57 57 58 60 62 62 61 59 57 56 56 55 55 55 55
51 52 53 53 53 54 55 55 56 57 58 58 58 56 55 54 54 55 57 59 61 63 63 63 61 59 58 58 58 57 58 59 62 63 63 61 60 58 58 58 58 59
51 52 53 53 53 54 55 56 56 57 58 59 59 59 59 58 57 57 56 57 59 62 64 65 65 62 59 58 58 58 58 58 59 61 63 64 63 62 60 59 59 60
53 54 55 55 56 56 57 58 59 59 59 60 60 59 59 59 59 59 59 58 58 59 61 64 66 65 62 59 59 59 59 59 59 60 61 62 63 64 63 61 60 60
57 59 59 59 59 59 60 61 60 61 60 60 61 60 59 57 57 57 57 58 58 58 60 62 64 66 65 61 59 59 60 60 60 60 60 60 61 62 63 63 61 60
60 62 63 63 62 62 63 62 62 62 61 61 62 62 60 58 57 56 55 56 56 57 59 60 61 63 65 64 60 58 58 60 61 61 61 61 60 60 61 62 62 61
63 64 66 67 66 66 66 66 66 65 64 64 64 65 64 62 59 58 57 56 56 56 57 59 60 60 62 64 63 59 57 59 61 62 62 62 60 60 60 60 61 61
67 69 70 72 73 72 72 72 72 72 71 69 69 70 69 67 65 63 62 60 59 58 57 59 60 59 60 62 63 60 57 57 59 61 63 63 62 60 60 60 60 60
72 74 75 77 79 80 79 79 78 79 78 77 77 76 76 74 71 70 68 66 64 63 61 60 61 60 60 61 61 60 57 55 57 59 62 64 63 62 61 60 60 60
77 79 80 82 83 85 86 85 84 84 83 82 82 82 82 81 78 76 75 73 70 68 67 65 64 62 61 60 61 61 58 55 55 58 60 62 63 63 62 62 61 61

ECMWFNIL_700_spd_027.txt.gz
Wind_Speed
42 42 42 42 41 40 40 39 39 39 39 39 39 39 39 39 39 39 39 38 38 37 37 36 36 36 36 36 35 35 33 32 31 31 31 31 31 31 32 34 35 37
48 47 47 46 46 45 44 43 42 41 40 39 39 38 39 39 39 39 39 39 39 39 39 38 37 37 37 37 37 37 36 35 34 34 34 33 32 32 33 33 33 35
50 50 49 49 50 50 49 47 46 44 42 40 39 36 36 36 38 38 38 38 38 38 39 39 38 38 38 37 36 36 36 36 36 37 37 37 36 35 35 34 34 34
50 51 52 53 53 52 52 51 50 48 45 43 41 38 36 35 35 36 37 37 37 37 37 37 37 38 38 38 37 36 36 36 36 37 37 38 38 38 38 37 37 36
51 53 54 55 55 54 52 50 49 48 48 46 45 43 40 38 36 35 35 36 36 36 36 36 36 36 36 37 37 37 37 36 37 37 38 37 37 38 39 39 39 39
53 53 53 53 54 53 52 49 47 46 46 47 47 46 45 42 39 37 35 35 35 36 37 37 37 36 36 36 36 36 36 36 37 38 39 40 39 39 40 40 41 40
51 51 51 50 49 49 48 47 46 45 44 44 45 46 46 46 45 43 41 39 37 36 36 37 38 38 38 38 38 37 37 36 37 38 39 40 40 41 40 41 42 42
47 47 47 47 47 46 45 44 43 43 43 43 43 43 44 46 47 47 47 46 44 42 40 39 39 39 39 39 40 40 40 39 39 39 39 40 40 41 41 41 42 43
43 43 43 43 43 44 43 43 43 43 43 44 44 43 44 44 45 46 46 47 47 46 46 45 44 42 42 41 41 42 42 42 42 42 41 41 42 42 42 42 43 43
41 40 39 40 40 41 41 42 43 43 43 44 45 45 45 46 46 46 46 46 46 46 46 47 47 47 47 46 46 46 45 45 45 45 45 44 44 44 45 45 45 45
38 38 39 39 39 39 40 40 41 42 43 44 45 46 47 48 48 48 49 49 49 49 49 49 49 50 50 51 51 50 50 50 49 49 48 47 47 47 47 47 47 48
36 37 37 38 39 40 40 41 42 43 43 44 46 47 48 48 50 50 51 52 52 53 53 53 54 54 54 54 54 54 54 54 54 54 53 52 50 49 49 49 49 49
36 36 37 38 39 40 41 42 43 44 45 46 47 48 49 50 51 51 52 54 54 55 56 56 57 57 57 57 57 56 56 56 56 56 57 57 55 54 52 51 51 51
37 38 38 39 39 40 41 42 44 45 46 47 48 49 50 51 52 53 54 55 55 56 57 58 58 59 59 58 58 58 58 58 58 57 58 58 59 59 57 55 54 53
38 39 39 40 40 40 40 41 42 43 45 46 47 48 49 51 52 54 55 56 57 57 58 59 60 60 60 60 60 60 60 60 60 60 59 59 60 60 61 60 58 56
40 40 40 40 40 40 41 41 42 43 44 45 46 47 48 49 51 52 54 56 57 58 59 60 61 61 62 62 63 63 64 64 64 63 63 62 62 62 62 62 62 62
43 43 43 43 43 43 43 43 44 45 45 46 47 48 49 50 51 53 54 56 58 60 61 62 63 63 64 64 65 66 67 68 68 68 68 67 66 66 65 65 64 64
45 45 46 45 46 46 46 47 48 49 50 50 51 52 53 54 55 57 58 59 61 63 64 65 66 66 66 67 68 69 69 71 72 72 72 72 71 70 69 68 67 67
46 47 47 47 48 48 49 50 51 53 54 55 56 57 59 60 61 63 64 65 67 69 69 70 70 69 70 71 72 72 72 73 74 75 75 75 75 74 73 72 71 70
48 48 49 49 50 50 51 53 54 56 57 59 61 63 65 67 68 70 72 73 74 75 76 76 75 73 73 74 74 74 74 75 75 76 76 77 77 77 76 76 75 74
49 49 50 50 51 52 54 56 57 60 62 64 67 68 71 73 75 77 78 78 78 79 79 79 77 76 75 75 75 74 74 74 74 75 75 76 76 77 77 78 77 77
49 50 51 51 53 54 56 58 61 63 66 69 72 74 76 78 79 79 79 78 78 77 77 77 76 74 74 74 74 74 74 74 74 75 75 75 75 75 76 77 78 78
49 50 51 53 54 56 59 61 64 67 70 74 76 77 78 77 76 76 76 75 76 76 76 77 76 75 74 75 75 75 76 77 77 77 77 77 76 75 75 76 76 77
49 51 53 54 56 59 62 64 67 71 74 76 76 75 74 74 74 75 75 75 76 77 77 79 79 78 77 78 78 78 78 80 80 80 80 79 78 78 77 77 77 77
50 52 54 57 59 62 64 68 71 73 73 72 71 72 73 74 76 77 78 78 79 79 79 79 80 78 76 76 76 75 76 77 77 79 79 78 78 79 79 79 79 78
51 54 56 59 61 64 67 71 72 70 68 68 69 72 75 77 79 80 80 79 78 77 74 72 70 68 65 64 63 63 63 65 66 67 69 69 70 71 73 74 76 77

ECMWFNIL_700_spd_030.txt.gz
Wind_Speed
38 38 39 40 40 41 41 40 39 38 38 39 39 40 40 40 41 42 42 42 42 42 41 40 39 39 39 39 39 38 38 37 37 37 37 37 36 35 34 34 35 35
41 42 43 44 44 45 45 45 45 44 43 41 40 40 40 40 40 41 41 41 42 43 43 43 42 41 41 40 40 41 40 39 38 38 38 38 38 38 37 36 36 36
46 47 48 48 48 48 49 49 49 49 48 47 45 44 43 42 41 40 39 39 40 41 42 43 44 44 44 43 42 42 42 42 41 40 40 39 38 38 39 38 38 38
49 51 52 51 51 50 50 51 51 51 51 50 49 48 47 45 43 40 38 37 37 37 39 40 41 43 43 44 44 43 43 42 42 42 41 40 39 39 39 39 39 39
50 51 51 51 50 50 49 49 49 50 50 50 49 49 49 49 47 44 41 39 37 36 37 38 40 41 42 43 43 43 43 42 42 42 42 41 40 40 40 40 40 40
50 49 48 47 47 47 47 47 46 46 46 46 46 47 47 48 48 47 45 43 41 39 38 37 38 39 41 43 43 44 44 43 42 42 42 42 41 41 41 41 41 40
49 48 47 46 45 44 44 44 44 44 44 44 43 43 43 43 44 44 45 44 43 42 41 40 39 39 40 41 43 44 45 46 45 45 44 43 42 42 41 42 42 42
47 46 45 44 43 43 42 42 42 42 43 43 43 43 43 43 43 43 43 43 44 44 44 43 43 42 42 42 42 43 44 46 47 48 48 47 46 45 44 44 44 44
42 41 41 41 40 41 41 41 41 41 41 42 42 43 44 45 45 46 46 46 46 46 46 46 47 47 47 46 46 46 46 46 47 48 50 50 51 50 49 48 48 47
37 37 37 37 37 38 38 39 40 40 41 41 42 42 43 43 45 46 47 48 48 49 49 49 49 50 50 50 50 51 51 50 50 50 51 51 52 53 53 53 53 52
33 33 33 34 34 35 36 36 38 38 39 41 41 42 43 43 44 45 47 48 49 50 51 52 52 53 53 53 53 54 54 54 54 54 54 54 54 54 55 56 57 57
31 31 32 33 34 35 36 36 38 39 40 41 42 43 44 45 46 47 48 49 50 52 53 54 55 55 56 56 56 56 56 56 56 57 57 57 57 57 57 57 57 58
31 32 33 34 35 37 38 39 40 41 43 44 45 46 47 47 48 49 50 50 51 52 53 54 55 56 57 58 58 59 59 58 58 58 59 59 60 60 60 59 59 59
33 34 35 37 37 38 39 39 41 42 43 44 45 46 46 47 48 48 49 50 50 51 52 53 54 55 56 58 59 61 62 63 63 63 63 63 63 63 63 63 63 63
36 37 38 39 40 40 40 40 40 41 41 42 43 44 45 46 46 47 48 49 49 50 52 53 54 55 56 58 60 62 64 66 67 68 69 69 69 68 68 67 67 66
39 40 41 41 41 41 41 41 41 41 41 42 42 43 44 45 46 47 48 49 50 51 52 53 55 56 58 60 63 65 67 69 70 71 72 73 73 74 73 72 71 71
43 43 43 42 42 42 42 42 42 43 43 44 44 45 45 46 47 48 49 50 52 54 55 56 57 58 61 64 67 69 71 73 75 75 75 76 76 77 77 76 76 75
44 44 43 43 43 43 43 43 44 45 45 46 47 47 48 48 49 50 51 53 56 58 59 61 62 64 67 69 69 70 71 73 75 76 77 77 78 78 78 78 78 78
43 43 43 43 43 43 44 44 45 45 46 47 48 48 49 50 51 53 55 57 60 62 64 66 67 68 68 68 69 69 70 72 74 75 75 76 76 77 77 78 78 79
43 43 43 43 44 44 44 44 45 46 46 47 48 49 50 52 54 56 59 61 64 67 68 68 67 66 67 68 70 72 73 75 76 77 77 76 76 75 76 76 76 77
43 43 44 44 44 44 44 44 45 46 46 48 49 50 52 55 57 60 62 65 67 67 67 65 65 66 69 71 74 76 78 79 80 80 79 78 77 76 76 76 76 76
43 43 43 43 43 43 44 44 45 46 48 49 51 53 55 58 60 63 65 66 65 64 64 65 65 69 73 76 77 78 77 76 76 75 74 74 73 73 73 74 74 75
43 43 43 42 43 43 44 45 46 48 50 52 54 56 58 61 63 65 65 64 62 62 64 66 68 71 74 73 71 68 66 64 63 61 60 59 59 59 60 61 63 65
42 42 42 42 42 43 45 46 48 50 51 54 56 59 61 64 66 64 62 60 61 63 65 67 69 71 69 64 59 57 56 55 53 52 51 50 50 49 50 51 52 54
40 40 41 42 43 44 46 48 49 51 53 55 58 61 64 65 64 61 59 60 62 63 64 68 70 66 60 56 54 54 53 52 50 49 48 47 46 46 47 48 49 50
39 40 41 42 44 46 47 49 50 52 55 57 60 63 64 62 59 58 60 61 61 62 64 67 66 59 54 53 53 51 49 47 45 44 43 42 42 43 44 45 47 49

ECMWFNIL_700_spd_033.txt.gz
Wind_Speed
38 38 38 38 38 39 40 41 43 44 45 46 47 47 47 46 44 44 43 43 42 41 41 42 42 43 43 43 42 42 41 41 41 41 41 42 42 42 43 43 43 43
42 43 43 43 43 44 45 46 47 48 49 49 48 47 47 46 45 44 44 43 42 41 40 39 39 40 41 41 42 42 43 43 43 43 42 42 43 43 44 44 44 44
45 46 47 47 47 47 48 48 48 48 48 48 48 47 46 45 44 44 44 43 43 42 40 39 39 38 39 40 41 41 42 43 44 44 44 43 43 44 44 45 45 45
48 48 48 49 49 50 49 49 48 47 47 46 45 45 44 44 44 43 43 43 43 42 42 42 41 40 39 39 40 41 42 43 44 44 44 44 44 44 44 44 45 45
49 49 50 50 50 50 48 47 46 45 45 44 42 42 42 42 42 41 41 40 41 41 41 42 42 41 41 40 40 41 42 43 44 45 45 45 44 45 45 45 46 46
46 47 48 48 47 46 45 45 44 44 43 42 41 41 41 41 41 41 41 40 39 39 39 40 40 41 42 42 42 42 42 43 44 45 46 47 46 46 46 47 47 47
45 45 45 45 45 45 45 45 44 44 43 43 42 42 42 42 42 42 43 43 43 42 42 42 41 42 42 43 44 44 44 45 45 46 46 48 48 49 49 49 50 50
45 45 45 44 44 44 44 44 44 44 43 42 42 41 41 41 41 41 42 43 44 44 45 45 45 45 46 46 47 47 47 48 48 49 49 50 50 51 51 52 53 53
42 42 42 41 41 40 40 40 40 39 39 39 38 38 39 39 40 40 41 42 43 44 45 46 47 48 49 49 50 50 51 50 50 51 52 52 53 53 53 54 55 56
37 36 36 36 36 35 35 34 34 34 35 35 36 36 37 38 40 41 42 43 44 45 46 47 48 49 50 51 52 53 53 53 53 52 53 53 53 54 55 56 57 58
33 33 33 34 34 33 33 33 34 34 35 36 37 39 40 41 43 44 45 46 47 48 48 49 50 50 51 52 53 54 55 55 56 55 55 55 55 55 55 56 57 57
32 33 33 34 34 34 34 35 36 37 38 39 41 42 44 45 46 46 47 47 48 48 49 49 50 50 51 52 54 55 56 57 58 58 59 59 59 59 59 58 58 58
33 34 34 34 35 36 37 38 39 40 41 43 44 46 47 47 47 47 47 47 47 47 47 48 49 50 51 52 53 55 56 58 59 60 61 62 62 63 63 64 64 63
34 34 35 36 37 39 40 41 42 43 44 46 46 46 46 46 46 46 45 45 45 46 46 47 47 48 49 51 53 54 56 58 59 61 62 63 64 65 66 67 67 68
35 36 37 39 40 42 43 44 45 45 45 45 45 44 44 44 44 44 44 44 44 44 45 46 47 48 49 51 54 55 57 58 60 61 63 65 66 67 68 69 70 71
37 39 40 41 43 43 44 44 44 44 43 43 42 42 42 43 43 43 44 44 44 45 45 46 47 49 51 53 56 58 59 61 62 63 65 67 68 69 69 70 70 71
40 41 42 42 43 43 43 43 42 42 42 42 42 42 42 42 42 42 43 43 44 45 46 47 49 51 53 56 58 60 62 64 65 66 66 67 67 67 68 68 68 69
41 41 41 42 42 42 42 42 42 42 42 42 42 42 41 41 41 42 42 43 45 46 47 50 52 54 56 58 60 62 64 66 67 67 66 65 65 66 67 68 69 70
39 40 40 41 41 42 42 42 42 42 42 42 41 41 41 41 42 42 44 45 46 48 49 52 54 56 59 61 62 64 65 66 66 65 65 65 66 67 69 70 72 73
38 39 40 41 42 42 42 42 42 41 41 41 40 41 41 42 42 44 45 47 49 50 52 54 56 58 61 62 64 64 63 64 64 65 66 67 68 69 71 72 72 71
38 39 41 41 42 42 42 41 40 40 39 39 40 41 41 42 43 45 47 48 50 53 55 57 58 60 62 62 62 61 62 63 64 66 67 68 68 69 69 68 66 63
39 40 41 41 41 41 40 39 39 38 38 39 40 41 42 43 44 46 48 50 52 55 57 59 60 61 61 60 59 60 62 63 64 65 66 66 67 66 64 61 59 57
39 40 40 40 40 39 38 38 37 38 39 40 41 41 42 44 45 47 49 52 54 57 59 61 61 60 58 58 59 61 62 62 62 63 64 64 63 60 57 56 55 54
39 39 40 39 39 38 38 37 38 38 39 40 41 42 43 45 47 49 51 53 56 58 60 60 59 57 57 58 59 59 59 60 61 62 62 60 58 55 54 53 51 49
38 39 39 39 38 38 38 38 38 39 40 41 42 44 45 47 49 51 53 55 57 58 59 58 56 55 56 56 56 56 57 58 59 60 59 56 54 53 52 49 46 44
38 39 39 39 38 38 38 38 38 39 40 42 43 45 47 48 50 53 55 56 58 57 56 55 54 55 54 53 53 54 56 57 58 57 54 53 52 52 49 46 44 43

ECMWFNIL_700_spd_036.txt.gz
Wind_Speed
35 37 39 41 43 44 44 44 44 44 43 43 42 42 41 41 40 40 40 40 40 41 40 40 40 40 40 40 40 40 41 41 41 41 41 42 42 43 43 43 44 44
41 43 45 46 46 46 45 44 44 43 42 41 41 41 40 40 39 38 37 37 38 38 39 39 39 39 39 39 39 39 39 40 40 41 41 42 43 43 44 44 44 45
45 46 46 46 46 46 45 44 43 42 41 40 40 39 39 38 38 37 36 36 36 36 37 37 38 38 39 39 39 40 40 40 40 40 41 42 43 43 44 44 45 45
45 45 45 45 45 45 45 44 42 41 40 40 40 39 39 38 37 36 35 35 34 34 34 35 36 37 37 38 39 40 40 41 42 42 42 43 43 44 45 45 45 46
44 44 44 45 45 45 44 43 42 41 41 41 41 41 41 40 39 37 36 35 35 34 34 34 35 36 37 37 38 39 39 40 41 42 42 43 43 44 45 46 47 47
44 44 44 45 45 44 44 43 42 42 42 42 42 41 40 40 39 38 38 37 37 37 37 38 38 38 39 39 39 40 40 41 41 42 42 43 43 44 45 46 47 48
44 44 44 43 43 42 41 41 41 41 41 41 41 40 40 39 39 39 39 39 39 39 39 40 41 41 42 43 43 44 44 45 46 46 46 47 47 47 47 47 48 48
45 44 43 42 41 41 40 40 40 40 40 39 39 38 38 38 38 38 39 39 39 40 40 41 42 43 44 45 46 47 47 48 49 49 50 50 51 51 50 50 50 51
42 41 41 40 39 39 39 38 38 38 38 38 37 36 36 37 37 37 38 39 40 41 42 44 45 46 47 47 48 48 49 49 49 50 51 51 52 52 52 53 53 53
39 38 38 37 37 36 35 35 36 37 37 36 36 36 37 37 38 39 40 42 43 45 46 47 48 49 49 49 49 50 50 50 50 50 50 51 52 52 53 54 54 54
36 35 35 34 33 33 33 34 35 35 36 36 37 38 39 40 41 43 44 45 46 47 48 48 48 48 48 49 49 49 49 50 50 50 50 51 51 52 53 54 55 55
34 34 33 33 32 32 33 34 35 36 37 38 39 41 42 43 44 45 46 46 47 47 47 47 47 47 47 48 48 48 49 49 50 50 50 51 51 52 53 54 55 56
33 32 32 32 33 33 34 35 36 38 40 41 43 44 45 45 45 45 45 45 45 45 45 45 45 46 46 47 47 48 48 48 49 49 50 51 52 53 54 55 56 58
32 32 32 33 33 34 36 38 39 41 43 44 44 45 45 44 44 44 43 43 43 44 44 44 44 45 45 45 46 46 47 48 49 50 51 52 54 55 56 57 58 59
31 32 32 34 35 37 39 41 42 43 43 43 44 43 43 43 43 43 43 42 43 43 43 43 43 43 44 44 45 46 47 49 50 52 54 55 56 57 58 59 60 61
31 33 35 37 39 40 41 42 42 42 42 42 42 42 42 42 42 42 41 41 41 41 41 41 42 42 43 44 46 48 49 51 53 54 56 58 59 60 60 61 62 62
34 36 38 39 40 41 41 41 41 41 41 41 41 41 41 41 41 40 40 40 40 40 40 41 41 42 44 45 47 50 52 54 56 58 59 60 61 62 63 63 62 61
37 39 39 40 40 40 40 40 40 40 40 40 40 40 40 40 39 39 39 39 39 40 40 41 42 43 45 47 49 52 54 57 58 60 61 62 63 64 63 62 61 60
38 38 39 39 39 39 40 39 39 38 38 38 39 39 39 39 39 39 39 39 39 40 41 42 43 44 46 49 51 53 56 58 60 61 62 63 64 63 61 61 60 60
37 37 37 38 39 39 38 37 37 37 37 38 38 38 38 38 38 38 38 39 40 40 41 42 44 46 48 50 53 55 57 59 61 62 63 62 61 60 60 61 61 62
35 36 37 37 37 36 36 36 36 36 37 37 38 38 38 38 38 38 39 39 40 41 42 43 45 47 49 51 54 56 58 60 61 61 60 59 59 59 60 61 61 61
35 35 36 36 35 35 35 35 35 36 37 37 38 38 38 38 38 38 39 40 40 42 43 44 46 48 51 53 55 57 59 60 60 58 57 57 58 58 59 60 60 60
34 35 34 34 34 34 35 35 36 37 37 38 37 37 37 37 37 38 39 39 41 42 44 45 46 49 52 54 56 58 58 58 57 56 56 56 57 57 58 58 58 58
34 34 34 34 34 35 35 36 36 37 37 38 38 37 37 37 37 38 39 40 41 42 44 46 47 50 52 54 56 57 56 56 55 55 55 55 55 56 56 57 56 56
34 34 35 35 35 36 36 36 37 37 38 38 37 37 37 37 37 38 39 40 41 43 45 47 49 50 52 54 55 54 54 54 54 53 53 53 54 55 56 56 56 54
35 35 36 36 36 37 37 37 38 38 38 37 36 36 36 37 38 39 39 40 42 43 46 48 49 50 52 53 53 52 52 52 52 52 52 53 54 55 55 56 55 53

ECMWFNIL_700_spd_042.txt.gz
Wind_Speed
32 32 33 33 33 33 33 34 35 36 37 38 39 40 40 40 40 40 40 39 39 39 38 38 38 37 37 37 36 36 36 36 36 36 37 37 38 38 39 40 41 43
34 34 34 34 34 34 35 36 37 39 40 40 41 41 41 40 40 40 39 39 39 39 39 38 38 38 37 37 36 36 35 35 35 35 35 35 36 36 37 38 39 40
34 34 34 34 35 36 38 39 40 41 41 41 41 41 40 40 39 39 39 39 39 39 39 38 38 38 38 37 37 36 36 35 35 35 35 35 35 36 36 37 37 38
34 34 35 35 37 38 40 41 42 42 42 41 41 40 40 40 40 40 39 39 38 38 37 37 37 37 37 36 36 36 36 36 36 36 36 37 37 38 38 39 39 40
35 35 36 37 39 41 42 43 43 43 43 41 40 40 40 40 40 40 40 39 38 38 37 37 37 37 37 36 36 37 37 37 37 38 38 39 39 40 40 40 41 41
37 37 38 40 42 43 44 44 45 44 42 41 40 40 40 40 40 40 40 39 38 38 38 37 37 37 37 38 38 39 39 39 39 39 40 40 40 40 40 41 41 41
38 39 41 43 44 45 45 44 43 42 41 40 40 40 40 40 40 39 39 38 37 37 37 37 37 37 38 38 38 39 39 40 40 40 40 40 40 40 41 41 41 42
40 41 43 45 45 45 44 42 41 41 40 41 41 41 40 39 39 38 37 36 36 36 36 36 37 37 38 38 38 38 38 39 39 39 40 40 40 41 41 42 42 43
41 43 44 45 44 43 42 41 41 41 41 41 41 40 40 39 38 37 36 36 36 36 36 36 37 37 37 37 37 37 37 38 38 38 39 40 41 41 42 42 43 43
42 42 43 43 43 43 42 42 42 42 42 41 41 40 39 38 37 36 36 36 36 36 36 37 37 37 37 37 37 37 37 37 38 38 39 40 41 41 42 43 43 44
42 42 42 42 43 43 42 42 42 42 42 41 40 39 38 37 36 35 35 35 35 36 36 36 36 36 36 36 36 36 36 37 38 39 39 40 41 41 42 42 43 43
41 41 41 42 43 43 42 42 42 41 41 39 38 37 36 35 35 35 35 35 35 35 35 35 35 35 35 35 35 36 37 37 38 39 40 40 40 41 41 42 42 42
41 41 42 43 42 41 40 40 40 40 40 39 38 37 36 35 35 34 34 34 34 34 34 34 33 34 34 35 35 36 37 38 39 39 40 40 40 41 41 41 41 41
42 42 42 41 41 40 39 39 39 40 39 38 37 36 36 35 35 34 33 33 33 33 33 32 33 34 34 35 36 37 38 38 39 39 40 40 40 40 40 41 41 42
41 41 40 39 39 38 38 39 39 40 39 38 37 36 36 35 34 33 33 33 32 32 32 32 33 34 35 36 37 38 38 39 39 40 40 40 40 40 40 41 42 42
41 39 38 38 38 37 38 39 39 39 38 37 36 36 36 35 34 33 33 32 32 32 32 33 34 35 36 37 38 39 39 40 40 41 41 41 41 41 41 41 42 43
41 39 37 37 37 37 38 39 38 38 37 36 36 36 36 35 34 33 33 32 32 33 33 35 36 36 37 38 39 40 40 41 41 42 42 42 42 42 42 43 43 45
40 38 37 36 37 37 38 38 37 37 36 36 36 36 36 35 34 34 33 33 34 34 35 36 37 38 38 39 40 41 41 42 42 42 43 42 43 43 43 44 45 46
39 38 37 37 38 38 38 37 36 36 36 36 36 36 36 35 35 34 34 35 35 36 37 38 38 39 40 40 41 42 42 43 43 43 43 43 43 43 44 46 47 48
38 38 38 38 38 37 35 35 35 35 36 36 36 36 36 36 36 35 35 36 37 38 38 39 40 40 41 41 42 43 43 43 43 43 43 43 43 44 45 47 48 49
38 38 38 38 36 34 34 34 35 35 36 36 37 37 37 37 37 36 36 37 38 39 40 41 41 42 42 42 43 43 43 43 43 43 43 43 44 45 46 48 49 50
38 37 36 34 33 33 34 34 35 35 36 36 37 37 38 38 37 37 37 38 39 40 41 42 42 42 42 42 43 43 43 42 42 42 43 43 44 46 47 49 49 50
35 34 33 33 33 33 34 34 35 35 36 37 37 37 38 37 37 37 38 39 40 41 41 42 42 42 41 41 42 42 42 42 42 42 43 44 46 47 48 49 49 50
32 32 32 32 33 33 34 35 35 35 36 36 37 37 37 37 37 37 38 39 40 41 41 41 41 40 40 40 40 41 42 42 42 43 44 45 47 48 49 50 50 50
31 31 32 32 33 34 34 34 34 35 35 36 36 37 37 37 37 38 39 40 40 40 41 40 40 39 39 39 40 40 41 42 42 44 45 47 48 49 50 50 51 52
30 31 32 33 34 34 34 34 34 35 35 35 35 36 36 37 38 38 39 39 39 39 39 39 39 38 38 39 39 40 41 42 43 45 47 48 49 50 50 51 52 53

ECMWFNIL_700_spd_045.txt.gz
Wind_Speed
28 29 30 31 32 33 34 35 36 36 37 37 36 37 37 38 39 40 41 42 43 43 42 42 41 41 41 41 41 41 41 41 41 41 41 41 41 41 41 41 41 41
31 32 33 34 35 36 36 37 37 38 37 37 37 37 38 39 41 42 42 43 43 42 42 41 41 41 41 41 41 41 41 41 41 41 41 41 41 41 41 41 41 41
34 34 35 36 36 37 38 38 38 38 38 38 38 39 40 41 42 43 44 44 43 43 42 42 42 42 41 41 41 41 41 41 41 41 41 41 41 40 41 41 41 41
35 36 36 37 37 38 38 39 39 39 39 39 40 41 42 43 45 45 45 44 43 43 43 43 43 42 42 42 42 42 43 42 42 42 42 42 42 42 42 42 42 42
36 37 37 38 38 39 39 40 40 40 41 41 42 43 44 45 46 45 44 43 42 43 43 43 43 43 43 43 44 44 44 44 43 43 43 43 43 43 42 42 42 42
37 38 38 38 39 39 40 41 41 42 43 43 44 45 46 46 45 44 42 42 42 42 42 43 43 44 44 44 44 44 44 43 43 43 42 42 42 42 42 41 41 41
38 38 38 39 39 40 41 41 43 43 44 45 46 47 47 46 44 42 41 41 42 42 42 43 44 44 44 44 43 43 42 42 41 41 41 41 40 40 40 40 40 41
39 39 39 39 40 41 41 42 43 44 45 46 47 47 46 45 43 42 42 42 42 42 42 42 43 42 42 42 41 41 41 40 40 40 39 39 38 38 38 39 40 41
39 39 39 40 40 41 42 43 44 45 46 47 47 47 45 44 44 43 42 42 41 41 41 41 41 41 41 40 40 40 39 39 38 38 37 36 36 37 38 39 40 41
39 39 40 40 41 42 42 43 44 45 46 47 46 46 45 44 44 43 42 41 40 40 40 39 39 40 39 39 39 38 38 37 36 36 35 35 36 37 38 39 40 41
40 40 40 41 41 42 43 44 45 45 46 46 45 45 44 44 44 43 42 41 40 39 38 38 39 39 39 38 37 37 36 35 35 35 35 36 37 38 39 40 40 41
40 41 41 42 42 43 44 44 45 45 45 45 44 43 43 44 43 42 41 39 38 38 37 38 38 38 38 37 36 35 35 34 34 35 36 37 38 38 39 40 41 42
41 41 42 42 43 43 44 44 45 45 45 44 44 43 43 43 42 40 39 37 37 37 37 38 38 37 37 36 35 35 34 34 35 36 37 38 38 39 40 41 42 42
42 42 42 42 43 44 44 45 45 45 45 44 43 42 42 41 40 38 37 36 36 36 37 37 37 37 36 35 35 35 35 35 36 37 38 39 40 40 41 42 42 43
42 43 43 43 44 44 45 45 45 45 45 43 42 41 40 39 38 37 36 36 36 36 37 37 37 37 36 36 36 36 36 37 38 38 39 40 41 41 42 43 43 44
43 44 44 45 45 45 45 45 45 45 44 42 40 39 39 38 37 37 36 36 36 37 37 37 37 37 37 36 37 37 38 39 39 40 41 41 42 43 43 44 44 45
45 46 46 46 46 45 45 45 44 43 42 40 38 38 38 37 36 36 36 36 37 37 37 37 37 37 37 38 38 39 39 40 41 42 42 43 43 43 44 45 45 46
47 48 48 47 45 44 44 43 42 41 39 38 38 38 37 37 36 35 36 37 37 37 37 37 37 38 38 39 40 40 41 42 42 43 43 43 44 44 45 45 46 46
48 49 48 46 45 43 43 42 40 39 38 38 38 37 36 36 35 36 36 37 37 37 37 38 38 39 39 40 41 41 42 43 43 44 44 44 44 44 45 45 46 46
49 49 48 45 43 42 41 39 38 38 38 38 37 36 36 35 35 36 37 37 37 37 37 38 39 39 40 41 41 42 43 44 44 44 44 43 43 44 44 45 45 45
48 47 45 44 42 40 38 38 38 39 38 37 36 36 36 36 36 36 37 37 37 37 37 38 39 39 40 41 42 42 43 43 43 43 42 42 42 43 43 44 45 45
44 43 42 41 39 39 39 39 39 38 37 36 36 36 36 36 36 36 36 37 38 37 37 38 39 40 40 41 41 42 42 42 41 41 41 41 42 42 43 44 44 45
40 40 39 39 39 39 39 38 37 36 36 36 36 36 36 36 36 36 37 38 38 37 37 38 39 40 40 40 40 40 40 39 39 39 40 40 41 42 43 44 44 45
37 37 38 38 38 38 37 36 35 36 36 37 37 37 37 36 37 37 38 38 38 38 38 37 38 39 38 38 38 38 38 38 38 39 40 40 41 42 43 44 44 46
34 35 36 36 35 34 33 34 36 36 37 37 37 37 37 37 38 38 38 38 38 38 37 37 37 37 37 36 36 37 37 38 38 39 39 40 41 42 43 44 45 46
32 33 33 33 32 32 33 35 36 37 37 38 38 38 38 38 39 39 39 39 39 38 37 36 36 36 36 36 36 37 38 38 38 39 39 40 41 42 43 44 46 47

ECMWFNIL_700_spd_048.txt.gz
Wind_Speed
20 21 22 24 25 26 26 27 28 29 30 32 33 35 35 36 37 38 37 38 38 39 41 43 45 47 47 47 45 44 42 42 42 42 43 43 43 44 44 43 43 43
21 22 24 25 26 27 28 29 31 32 34 36 37 37 38 38 38 39 39 39 40 42 44 46 47 48 47 46 44 43 43 43 43 43 43 44 44 44 44 43 43 43
23 24 26 27 28 29 30 32 34 36 37 38 38 39 39 39 39 39 39 41 42 44 46 48 48 47 46 44 44 43 43 43 43 44 44 44 44 44 44 44 44 44
25 27 28 29 30 31 33 34 36 37 38 39 39 39 39 39 39 40 41 42 44 46 48 48 47 45 44 43 44 43 43 44 44 44 45 44 44 44 44 44 43 43
28 29 30 31 32 33 35 36 38 38 39 39 39 39 39 39 40 41 42 44 47 48 49 48 46 45 44 44 44 44 44 44 45 45 44 44 43 43 42 42 41 41
30 31 32 33 34 35 36 38 39 39 39 39 39 39 39 39 40 42 44 46 48 49 49 47 46 45 45 45 44 45 45 45 45 44 43 42 42 41 40 39 39 38
31 32 33 34 36 37 38 39 40 40 40 40 39 39 39 39 41 43 45 48 49 49 48 47 46 46 46 45 45 45 45 44 43 42 41 40 39 38 38 37 37 37
32 34 35 36 37 39 39 40 41 41 40 40 39 39 39 40 42 44 47 48 49 48 47 46 46 46 45 45 45 45 43 42 40 38 38 37 37 36 36 36 36 36
34 35 36 38 39 40 40 41 41 41 40 40 39 40 41 42 44 45 47 48 47 46 45 44 45 45 45 45 44 43 40 39 37 36 36 36 36 35 35 35 35 36
35 37 39 41 41 41 41 41 41 40 40 40 40 41 42 44 45 46 47 47 46 45 43 43 44 44 44 43 42 40 38 37 36 36 36 35 35 35 35 36 36 37
37 39 41 42 41 41 42 41 41 40 40 41 41 43 44 45 46 47 47 46 45 43 42 42 43 43 43 41 39 37 36 36 36 36 36 36 35 35 36 37 37 38
39 41 42 42 42 42 42 41 41 41 41 41 43 44 45 47 48 48 46 45 44 42 41 42 43 42 40 38 36 36 35 35 35 36 36 36 36 36 37 38 38 39
40 42 43 42 42 42 42 41 41 42 42 43 44 46 47 48 48 46 45 44 42 41 41 42 41 39 37 35 35 35 35 35 35 35 35 36 36 37 37 38 39 40
42 43 44 43 42 42 42 41 42 43 44 45 46 47 48 47 46 45 44 42 41 40 41 40 38 36 35 34 34 34 34 35 35 35 35 36 36 37 38 39 39 40
43 45 44 43 43 42 41 42 42 44 45 46 47 47 47 46 45 44 42 40 40 40 40 37 35 34 34 34 34 34 34 34 35 35 36 36 37 38 39 39 40 40
44 45 45 43 42 42 42 42 43 44 45 46 47 47 46 45 44 42 40 39 39 39 37 35 34 33 33 33 33 33 34 34 34 35 36 37 37 38 39 40 40 40
45 46 44 43 42 42 43 44 44 45 46 47 47 46 45 44 43 41 39 38 38 37 35 34 34 33 33 33 33 33 33 33 33 34 35 36 37 38 38 39 39 39
46 45 44 42 42 43 44 45 45 46 47 47 45 44 43 43 41 39 38 37 37 36 35 34 34 34 33 33 33 33 33 32 31 32 33 34 35 36 36 36 36 36
46 46 44 43 43 44 45 46 47 47 47 45 43 42 42 41 39 38 37 37 36 35 35 35 34 34 33 33 34 33 32 30 30 31 31 32 33 33 33 34 34 35
48 47 45 44 44 45 46 47 47 47 46 43 42 41 41 40 38 38 37 36 36 35 35 35 35 34 34 34 34 33 31 30 30 30 31 31 31 31 32 32 33 34
47 46 44 43 44 46 47 47 47 45 43 41 40 40 39 39 39 38 37 36 36 36 35 36 36 35 35 35 34 33 32 31 31 31 31 30 31 31 31 32 33 34
46 45 43 43 44 46 46 45 44 42 40 39 39 39 39 39 39 38 37 37 36 36 36 36 37 36 36 36 36 34 33 32 32 32 31 31 31 31 32 33 34 35
44 43 42 42 43 43 43 41 40 38 37 37 38 38 39 39 38 38 37 37 37 37 37 38 38 38 37 37 37 36 35 34 33 33 32 32 32 32 33 34 35 36
41 40 40 41 41 41 40 38 37 36 36 37 37 38 39 38 38 38 37 37 38 38 39 39 39 39 39 39 39 38 37 36 35 35 34 34 34 34 34 35 35 36
39 39 40 41 41 40 38 37 36 36 36 37 37 38 38 38 38 38 38 38 39 39 40 40 40 41 41 41 41 41 40 39 38 37 36 35 35 35 36 36 36 37
40 40 40 40 39 38 36 35 35 35 36 37 37 37 37 37 38 38 39 40 40 41 41 41 41 42 42 43 43 43 42 41 40 39 38 37 37 37 37 37 37 37